Time,TemperatureF,DewpointF,PressureIn,WindDirection,WindDirectionDegrees,WindSpeedMPH,WindSpeedGustMPH,Humidity,HourlyPrecipIn,Conditions,Clouds,dailyrainin,SoftwareType,DateUTC
2013-06-09 00:03:00,71.0,66.0,30.09,SW,224,0.0,0.0,83,0.00,,,0.01,,2013-06-09 04:03:00,
2013-06-09 00:12:00,71.0,66.0,30.09,SW,224,0.0,0.0,83,0.00,,,0.01,,2013-06-09 04:12:00,
2013-06-09 00:23:00,71.0,66.0,30.09,SW,224,0.0,0.0,83,0.00,,,0.01,,2013-06-09 04:23:00,
2013-06-09 00:33:00,70.0,65.0,30.09,SW,224,0.0,0.0,84,0.00,,,0.01,,2013-06-09 04:33:00,
2013-06-09 00:43:00,70.0,65.0,30.09,SW,224,0.0,0.0,84,0.00,,,0.01,,2013-06-09 04:43:00,
2013-06-09 00:52:00,70.0,65.0,30.09,SW,224,0.0,0.0,85,0.00,,,0.00,,2013-06-09 04:52:00,
2013-06-09 01:02:00,70.0,65.0,30.09,SW,224,0.0,0.0,85,0.00,,,0.00,,2013-06-09 05:02:00,
2013-06-09 01:12:00,70.0,65.0,30.09,SW,224,0.0,0.0,85,0.00,,,0.00,,2013-06-09 05:12:00,
2013-06-09 01:22:00,70.0,66.0,30.09,SW,224,0.0,0.0,86,0.00,,,0.00,,2013-06-09 05:22:00,
2013-06-09 01:32:00,70.0,66.0,30.09,SW,224,0.0,0.0,87,0.00,,,0.00,,2013-06-09 05:32:00,
2013-06-09 01:42:00,70.0,66.0,30.09,SW,224,0.0,0.0,87,0.00,,,0.00,,2013-06-09 05:42:00,
2013-06-09 01:52:00,70.0,66.0,30.10,SW,224,0.0,0.0,87,0.00,,,0.00,,2013-06-09 05:52:00,
2013-06-09 02:02:00,70.0,66.0,30.09,SW,224,0.0,0.0,87,0.00,,,0.00,,2013-06-09 06:02:00,
2013-06-09 02:12:00,70.0,66.0,30.09,SW,224,0.0,0.0,87,0.00,,,0.00,,2013-06-09 06:12:00,
2013-06-09 02:22:00,69.0,65.0,30.10,SW,224,0.0,0.0,87,0.00,,,0.00,,2013-06-09 06:22:00,
2013-06-09 02:32:00,69.0,65.0,30.09,SW,224,0.0,0.0,88,0.00,,,0.00,,2013-06-09 06:32:00,
2013-06-09 02:42:00,68.0,65.0,30.09,SW,224,0.0,0.0,89,0.00,,,0.00,,2013-06-09 06:42:00,
2013-06-09 02:52:00,68.0,65.0,30.09,SW,224,0.0,0.0,89,0.00,,,0.00,,2013-06-09 06:52:00,
2013-06-09 03:02:00,68.0,65.0,30.09,SW,224,0.0,0.0,90,0.00,,,0.00,,2013-06-09 07:02:00,
2013-06-09 03:12:00,68.0,65.0,30.09,SW,224,0.0,0.0,90,0.00,,,0.00,,2013-06-09 07:12:00,
2013-06-09 03:22:00,68.0,65.0,30.09,SW,224,0.0,0.0,91,0.00,,,0.00,,2013-06-09 07:22:00,
2013-06-09 03:32:00,68.0,65.0,30.10,SW,224,0.0,0.0,91,0.00,,,0.00,,2013-06-09 07:32:00,
2013-06-09 03:42:00,68.0,65.0,30.10,SW,224,0.0,0.0,91,0.00,,,0.00,,2013-06-09 07:42:00,
2013-06-09 03:52:00,67.0,64.0,30.09,SW,224,0.0,0.0,91,0.00,,,0.00,,2013-06-09 07:52:00,
2013-06-09 04:02:00,68.0,65.0,30.09,SW,224,0.0,0.0,91,0.00,,,0.00,,2013-06-09 08:02:00,
2013-06-09 04:12:00,68.0,65.0,30.09,SW,224,0.0,0.0,91,0.00,,,0.00,,2013-06-09 08:12:00,
2013-06-09 04:22:00,68.0,65.0,30.09,SW,224,0.0,0.0,91,0.00,,,0.00,,2013-06-09 08:22:00,
2013-06-09 04:32:00,68.0,65.0,30.09,SW,224,0.0,0.0,91,0.00,,,0.00,,2013-06-09 08:32:00,
2013-06-09 04:42:00,68.0,65.0,30.09,SW,224,0.0,0.0,91,0.00,,,0.00,,2013-06-09 08:42:00,
2013-06-09 04:53:00,67.0,65.0,30.08,SW,224,0.0,0.0,92,0.00,,,0.00,,2013-06-09 08:53:00,
2013-06-09 05:02:00,67.0,65.0,30.08,SW,224,0.0,0.0,92,0.00,,,0.00,,2013-06-09 09:02:00,
2013-06-09 05:12:00,67.0,65.0,30.08,SW,224,0.0,0.0,92,0.00,,,0.00,,2013-06-09 09:12:00,
2013-06-09 05:22:00,67.0,65.0,30.08,SW,224,0.0,0.0,92,0.00,,,0.00,,2013-06-09 09:22:00,
2013-06-09 05:33:00,67.0,65.0,30.08,SW,224,0.0,0.0,92,0.00,,,0.00,,2013-06-09 09:33:00,
2013-06-09 05:43:00,67.0,65.0,30.08,SW,224,0.0,0.0,92,0.00,,,0.00,,2013-06-09 09:43:00,
2013-06-09 05:52:00,67.0,65.0,30.09,SW,224,0.0,0.0,92,0.00,,,0.00,,2013-06-09 09:52:00,
2013-06-09 06:03:00,67.0,65.0,30.09,SW,224,0.0,0.0,93,0.00,,,0.00,,2013-06-09 10:03:00,
2013-06-09 06:13:00,67.0,65.0,30.09,SW,224,0.0,0.0,93,0.00,,,0.00,,2013-06-09 10:13:00,
2013-06-09 06:23:00,67.0,65.0,30.10,SW,224,0.0,0.0,93,0.00,,,0.00,,2013-06-09 10:23:00,
2013-06-09 06:32:00,67.0,65.0,30.10,SW,224,0.0,0.0,93,0.00,,,0.00,,2013-06-09 10:32:00,
2013-06-09 06:43:00,67.0,65.0,30.10,SW,224,0.0,0.0,93,0.00,,,0.00,,2013-06-09 10:43:00,
2013-06-09 06:52:00,67.0,65.0,30.10,SW,224,0.0,0.0,93,0.00,,,0.00,,2013-06-09 10:52:00,
2013-06-09 07:02:00,67.0,65.0,30.10,SW,224,0.0,0.0,93,0.00,,,0.00,,2013-06-09 11:02:00,
2013-06-09 07:12:00,67.0,65.0,30.10,SW,224,0.0,0.0,93,0.00,,,0.00,,2013-06-09 11:12:00,
2013-06-09 07:22:00,67.0,65.0,30.11,SW,224,0.0,0.0,94,0.00,,,0.00,,2013-06-09 11:22:00,
2013-06-09 07:32:00,67.0,65.0,30.11,SW,224,0.0,0.0,94,0.00,,,0.00,,2013-06-09 11:32:00,
2013-06-09 07:42:00,67.0,65.0,30.11,SW,224,0.0,0.0,94,0.00,,,0.00,,2013-06-09 11:42:00,
2013-06-09 07:52:00,67.0,65.0,30.11,SW,224,0.0,0.0,94,0.00,,,0.00,,2013-06-09 11:52:00,
2013-06-09 08:02:00,67.0,65.0,30.11,SW,224,0.0,0.0,94,0.00,,,0.00,,2013-06-09 12:02:00,
2013-06-09 08:12:00,67.0,65.0,30.11,SW,224,0.0,0.0,94,0.00,,,0.00,,2013-06-09 12:12:00,
2013-06-09 08:22:00,67.0,65.0,30.11,SW,224,0.0,0.0,94,0.00,,,0.00,,2013-06-09 12:22:00,
2013-06-09 08:32:00,68.0,66.0,30.11,SW,224,0.0,0.0,94,0.00,,,0.00,,2013-06-09 12:32:00,
2013-06-09 08:42:00,68.0,66.0,30.11,SW,224,0.0,0.0,94,0.00,,,0.00,,2013-06-09 12:42:00,
2013-06-09 08:52:00,69.0,67.0,30.11,SW,224,0.0,0.0,94,0.00,,,0.00,,2013-06-09 12:52:00,
2013-06-09 09:02:00,70.0,68.0,30.11,SW,224,0.0,0.0,94,0.00,,,0.00,,2013-06-09 13:02:00,
2013-06-09 09:12:00,70.0,68.0,30.11,SW,224,0.0,0.0,94,0.00,,,0.00,,2013-06-09 13:12:00,
2013-06-09 09:22:00,70.0,68.0,30.12,SW,224,0.0,0.0,93,0.00,,,0.00,,2013-06-09 13:22:00,
2013-06-09 09:32:00,71.0,69.0,30.12,SW,224,0.0,1.0,92,0.00,,,0.00,,2013-06-09 13:32:00,
2013-06-09 09:42:00,71.0,69.0,30.12,SW,224,0.0,1.0,92,0.00,,,0.00,,2013-06-09 13:42:00,
2013-06-09 09:52:00,71.0,69.0,30.12,SW,224,0.0,1.0,92,0.00,,,0.00,,2013-06-09 13:52:00,
2013-06-09 10:02:00,71.0,68.0,30.13,South,179,0.0,2.0,91,0.00,,,0.00,,2013-06-09 14:02:00,
2013-06-09 10:12:00,71.0,68.0,30.13,South,179,0.0,2.0,91,0.00,,,0.00,,2013-06-09 14:12:00,
2013-06-09 10:22:00,72.0,69.0,30.12,SSE,161,0.0,1.0,90,0.00,,,0.00,,2013-06-09 14:22:00,
2013-06-09 10:32:00,73.0,70.0,30.11,SSE,152,0.0,5.0,89,0.00,,,0.00,,2013-06-09 14:32:00,
2013-06-09 10:43:00,73.0,70.0,30.11,SSE,152,0.0,5.0,89,0.00,,,0.00,,2013-06-09 14:43:00,
2013-06-09 10:52:00,73.0,69.0,30.11,SSE,164,0.0,2.0,88,0.00,,,0.00,,2013-06-09 14:52:00,
2013-06-09 11:02:00,74.0,70.0,30.10,SSE,158,1.0,5.0,86,0.00,,,0.00,,2013-06-09 15:02:00,
2013-06-09 11:12:00,74.0,70.0,30.10,SSE,158,1.0,5.0,86,0.00,,,0.00,,2013-06-09 15:12:00,
2013-06-09 11:22:00,74.0,69.0,30.11,SE,133,0.0,5.0,84,0.00,,,0.00,,2013-06-09 15:22:00,
2013-06-09 11:33:00,75.0,69.0,30.11,South,174,1.0,5.0,83,0.00,,,0.00,,2013-06-09 15:33:00,
2013-06-09 11:43:00,75.0,69.0,30.11,South,174,1.0,5.0,83,0.00,,,0.00,,2013-06-09 15:43:00,
2013-06-09 11:53:00,74.0,68.0,30.11,SE,124,0.0,3.0,83,0.00,,,0.00,,2013-06-09 15:53:00,
2013-06-09 12:03:00,75.0,69.0,30.11,ESE,104,0.0,4.0,82,0.00,,,0.00,,2013-06-09 16:03:00,
2013-06-09 12:13:00,75.0,69.0,30.11,ESE,104,0.0,4.0,82,0.00,,,0.00,,2013-06-09 16:13:00,
2013-06-09 12:23:00,75.0,69.0,30.11,SE,131,0.0,2.0,81,0.00,,,0.00,,2013-06-09 16:23:00,
2013-06-09 12:33:00,75.0,69.0,30.11,SSE,155,0.0,0.0,82,0.00,,,0.00,,2013-06-09 16:33:00,
2013-06-09 12:42:00,75.0,69.0,30.11,SSE,155,0.0,0.0,82,0.00,,,0.00,,2013-06-09 16:42:00,
2013-06-09 12:53:00,76.0,70.0,30.10,SSE,158,0.0,3.0,81,0.00,,,0.00,,2013-06-09 16:53:00,
2013-06-09 13:03:00,77.0,70.0,30.09,SSE,164,0.0,3.0,80,0.00,,,0.00,,2013-06-09 17:03:00,
2013-06-09 13:12:00,77.0,70.0,30.09,SSE,164,0.0,3.0,80,0.00,,,0.00,,2013-06-09 17:12:00,
2013-06-09 13:22:00,78.0,71.0,30.08,SE,124,0.0,2.0,79,0.00,,,0.00,,2013-06-09 17:22:00,
2013-06-09 13:32:00,79.0,71.0,30.07,SE,133,5.0,14.0,76,0.00,,,0.00,,2013-06-09 17:32:00,
2013-06-09 13:42:00,79.0,71.0,30.07,SE,133,5.0,14.0,76,0.00,,,0.00,,2013-06-09 17:42:00,
2013-06-09 13:52:00,81.0,71.0,30.06,SSE,157,0.0,8.0,72,0.00,,,0.00,,2013-06-09 17:52:00,
2013-06-09 14:02:00,82.0,71.0,30.06,SSE,162,1.0,8.0,70,0.00,,,0.00,,2013-06-09 18:02:00,
2013-06-09 14:12:00,82.0,71.0,30.06,SSE,162,1.0,8.0,70,0.00,,,0.00,,2013-06-09 18:12:00,
2013-06-09 14:22:00,80.0,68.0,30.06,South,175,1.0,8.0,68,0.00,,,0.00,,2013-06-09 18:22:00,
2013-06-09 14:33:00,79.0,69.0,30.05,SE,138,1.0,6.0,71,0.00,,,0.00,,2013-06-09 18:33:00,
2013-06-09 14:42:00,79.0,69.0,30.05,SE,138,1.0,6.0,71,0.00,,,0.00,,2013-06-09 18:42:00,
2013-06-09 14:52:00,78.0,69.0,30.06,South,185,1.0,7.0,74,0.00,,,0.00,,2013-06-09 18:52:00,
2013-06-09 15:02:00,68.0,63.0,30.08,SE,143,6.0,21.0,83,0.49,,,0.49,,2013-06-09 19:02:00,
2013-06-09 15:12:00,68.0,63.0,30.08,SE,143,6.0,21.0,83,0.49,,,0.49,,2013-06-09 19:12:00,
2013-06-09 15:22:00,66.0,62.0,30.11,SE,137,0.0,8.0,87,0.84,,,0.84,,2013-06-09 19:22:00,
2013-06-09 15:32:00,67.0,64.0,30.09,SE,133,0.0,0.0,89,0.88,,,0.88,,2013-06-09 19:32:00,
2013-06-09 15:42:00,67.0,64.0,30.09,SE,133,0.0,0.0,89,0.88,,,0.88,,2013-06-09 19:42:00,
2013-06-09 15:52:00,68.0,65.0,30.08,SE,133,0.0,0.0,91,0.89,,,0.89,,2013-06-09 19:52:00,
2013-06-09 16:03:00,69.0,67.0,30.08,SSE,154,0.0,0.0,92,0.40,,,0.89,,2013-06-09 20:03:00,
2013-06-09 16:12:00,69.0,67.0,30.08,SSE,154,0.0,0.0,92,0.40,,,0.89,,2013-06-09 20:12:00,
2013-06-09 16:22:00,69.0,67.0,30.08,SSW,203,1.0,3.0,92,0.07,,,0.91,,2013-06-09 20:22:00,
2013-06-09 16:32:00,69.0,67.0,30.07,SSW,203,0.0,0.0,93,0.04,,,0.92,,2013-06-09 20:32:00,
2013-06-09 16:42:00,69.0,67.0,30.07,SSW,203,0.0,0.0,93,0.04,,,0.92,,2013-06-09 20:42:00,
2013-06-09 16:52:00,69.0,67.0,30.08,South,185,0.0,3.0,93,0.05,,,0.94,,2013-06-09 20:52:00,
2013-06-09 17:03:00,69.0,67.0,30.07,WSW,244,0.0,3.0,94,0.06,,,0.95,,2013-06-09 21:03:00,
2013-06-09 17:12:00,69.0,67.0,30.05,WSW,244,0.0,2.0,94,0.05,,,0.96,,2013-06-09 21:12:00,
2013-06-09 17:22:00,69.0,67.0,30.05,WSW,244,0.0,2.0,94,0.05,,,0.96,,2013-06-09 21:22:00,
2013-06-09 17:33:00,70.0,68.0,30.04,WSW,247,0.0,2.0,94,0.04,,,0.96,,2013-06-09 21:33:00,
2013-06-09 17:43:00,70.0,68.0,30.04,WSW,247,0.0,2.0,94,0.04,,,0.96,,2013-06-09 21:43:00,
2013-06-09 17:53:00,70.0,68.0,30.04,SSW,198,0.0,2.0,94,0.03,,,0.96,,2013-06-09 21:53:00,
2013-06-09 18:02:00,71.0,69.0,30.03,SSW,198,0.0,0.0,94,0.01,,,0.96,,2013-06-09 22:02:00,
2013-06-09 18:13:00,72.0,70.0,30.03,SSE,161,0.0,2.0,94,0.00,,,0.96,,2013-06-09 22:13:00,
2013-06-09 18:23:00,72.0,70.0,30.03,SSE,161,0.0,2.0,94,0.00,,,0.96,,2013-06-09 22:23:00,
2013-06-09 18:33:00,72.0,70.0,30.02,SSE,161,0.0,0.0,93,0.00,,,0.96,,2013-06-09 22:33:00,
2013-06-09 18:42:00,72.0,70.0,30.02,SSE,161,0.0,0.0,93,0.00,,,0.96,,2013-06-09 22:42:00,
2013-06-09 18:52:00,72.0,70.0,30.03,SSE,150,0.0,3.0,93,0.00,,,0.96,,2013-06-09 22:52:00,
2013-06-09 19:02:00,72.0,70.0,30.03,SSE,150,0.0,1.0,93,0.00,,,0.96,,2013-06-09 23:02:00,
2013-06-09 19:12:00,72.0,70.0,30.02,SSE,150,0.0,0.0,93,0.00,,,0.96,,2013-06-09 23:12:00,
2013-06-09 19:22:00,72.0,70.0,30.02,SSE,150,0.0,0.0,93,0.00,,,0.96,,2013-06-09 23:22:00,
2013-06-09 19:32:00,72.0,70.0,30.02,SSE,150,0.0,0.0,93,0.00,,,0.96,,2013-06-09 23:32:00,
2013-06-09 19:43:00,72.0,70.0,30.02,SSE,150,0.0,0.0,93,0.00,,,0.96,,2013-06-09 23:43:00,
2013-06-09 19:52:00,72.0,70.0,30.01,SSE,150,0.0,0.0,93,0.00,,,0.96,,2013-06-09 23:52:00,
2013-06-09 20:02:00,72.0,70.0,30.02,SSE,150,0.0,0.0,93,0.00,,,0.96,,2013-06-10 00:02:00,
2013-06-09 20:13:00,72.0,70.0,30.02,SSE,150,0.0,0.0,93,0.00,,,0.96,,2013-06-10 00:13:00,
2013-06-09 20:22:00,72.0,70.0,30.03,SSE,150,0.0,0.0,94,0.00,,,0.96,,2013-06-10 00:22:00,
2013-06-09 20:32:00,71.0,69.0,30.03,SSE,150,0.0,0.0,94,0.00,,,0.96,,2013-06-10 00:32:00,
2013-06-09 20:42:00,71.0,69.0,30.03,SSE,150,0.0,0.0,94,0.00,,,0.96,,2013-06-10 00:42:00,
2013-06-09 20:52:00,71.0,69.0,30.02,SSE,150,0.0,0.0,94,0.00,,,0.96,,2013-06-10 00:52:00,
2013-06-09 21:03:00,71.0,69.0,30.01,SSE,150,0.0,0.0,94,0.00,,,0.96,,2013-06-10 01:03:00,
2013-06-09 21:12:00,71.0,69.0,30.01,SSE,150,0.0,0.0,94,0.00,,,0.96,,2013-06-10 01:12:00,
2013-06-09 21:22:00,71.0,69.0,30.01,SSE,150,0.0,0.0,95,0.00,,,0.96,,2013-06-10 01:22:00,
2013-06-09 21:32:00,71.0,69.0,30.00,SSE,150,0.0,0.0,95,0.01,,,0.97,,2013-06-10 01:32:00,
2013-06-09 21:43:00,71.0,69.0,30.00,SSE,150,0.0,0.0,95,0.01,,,0.97,,2013-06-10 01:43:00,
2013-06-09 21:52:00,71.0,69.0,30.00,East,99,0.0,5.0,95,0.04,,,1.00,,2013-06-10 01:52:00,
2013-06-09 22:02:00,71.0,69.0,29.99,SE,134,0.0,5.0,95,0.04,,,1.00,,2013-06-10 02:02:00,
2013-06-09 22:12:00,71.0,69.0,29.99,SE,134,0.0,5.0,95,0.04,,,1.00,,2013-06-10 02:12:00,
2013-06-09 22:22:00,71.0,69.0,29.99,SSE,162,0.0,2.0,95,0.04,,,1.00,,2013-06-10 02:22:00,
2013-06-09 22:32:00,71.0,69.0,29.99,SSE,154,1.0,2.0,95,0.03,,,1.00,,2013-06-10 02:32:00,
2013-06-09 22:42:00,71.0,69.0,29.99,SSE,154,1.0,2.0,95,0.03,,,1.00,,2013-06-10 02:42:00,
2013-06-09 22:52:00,71.0,70.0,30.00,SSE,152,0.0,1.0,96,0.00,,,1.00,,2013-06-10 02:52:00,
2013-06-09 23:02:00,70.0,69.0,30.00,SSE,152,0.0,2.0,96,0.00,,,1.00,,2013-06-10 03:02:00,
2013-06-09 23:12:00,70.0,69.0,30.00,SSE,152,0.0,2.0,96,0.00,,,1.00,,2013-06-10 03:12:00,
2013-06-09 23:22:00,70.0,69.0,30.01,SSE,158,0.0,6.0,96,0.00,,,1.00,,2013-06-10 03:22:00,
2013-06-09 23:33:00,70.0,69.0,30.01,SE,134,0.0,2.0,96,0.00,,,1.00,,2013-06-10 03:33:00,
2013-06-09 23:43:00,70.0,69.0,30.01,SE,134,0.0,2.0,96,0.00,,,1.00,,2013-06-10 03:43:00,
2013-06-09 23:53:00,70.0,69.0,30.01,SSE,162,0.0,2.0,96,0.00,,,1.00,,2013-06-10 03:53:00,